Weather History for Superior, WI

Change the Weather History Date:

Friday, July 26, 2013

  Actual Average Record
Temperature  
Mean Temperature 54 °F -  
Max Temperature 58 °F 78 °F 94 °F (1989)
Min Temperature 50 °F 57 °F 44 °F (1962)
Degree Days  
Heating Degree Days 11    
Growing Degree Days 4 (Base 50)    
Moisture  
Dew Point 52 °F    
Average Humidity 90    
Maximum Humidity 100    
Minimum Humidity 69    
Precipitation  
Precipitation 0.19 in - - ()
Sea Level Pressure  
Sea Level Pressure 29.97 in    
Wind  
Wind Speed 5 mph (NNE)    
Max Wind Speed 16 mph    
Max Gust Speed 23 mph    
Visibility 7 miles    
Events Rain    
Averages and records for this station are not official NWS values.
T = Trace of Precipitation, MM = Missing Value Source: NWS Daily Summary

Daily Weather History Graph

Daily Weather History Graph

Search for Another Location

Airport:

Trip Planner

Search our weather history database for the weather conditions in past years. The results will help you decide how hot, cold, wet, or windy it might be!

Date:

Astronomy

Jul. 26, 2013 Rise Set
Actual Time 5:41 AM CDT 8:47 PM CDT
Civil Twilight 5:05 AM CDT 9:23 PM CDT
Nautical Twilight 4:19 AM CDT 10:09 PM CDT
Astronomical Twilight 3:21 AM CDT 11:05 PM CDT
Moon 10:38 PM CDT (7/26) 10:39 AM CDT (7/26)
Length of Visible Light 16h 17m
Length of Day
15h 05m
Waning Gibbous, 80% of the Moon is Illuminated
Jul 26
Waning Gibbous
Jul 29
Last Quarter
Aug 6
New
Aug 14
First Quarter
Aug 20
Full

Hourly Weather History & Observations

Time (CDT) Temp. Dew Point Humidity Pressure Visibility Wind Dir Wind Speed Gust Speed Precip Events Conditions
12:15 AM 55.6 °F 55.4 °F 99% 29.91 in 2.5 mi Calm Calm - N/A   Overcast
12:35 AM 55.6 °F 55.6 °F 100% 29.91 in 2.0 mi Calm Calm - N/A   Overcast
12:55 AM 55.6 °F 55.4 °F 99% 29.91 in 2.5 mi Calm Calm - N/A   Overcast
1:15 AM 55.6 °F 55.6 °F 100% 29.91 in 4.0 mi NNE 3.5 mph - N/A   Overcast
1:35 AM 55.6 °F 55.4 °F 99% 29.89 in 4.0 mi Calm Calm - N/A   Overcast
1:55 AM 55.8 °F 55.6 °F 99% 29.88 in 5.0 mi Calm Calm - N/A   Overcast
2:15 AM 55.8 °F 55.6 °F 99% 29.87 in 4.0 mi Calm Calm - N/A   Overcast
2:35 AM 55.9 °F 55.8 °F 99% 29.87 in 1.5 mi Calm Calm - N/A   Overcast
2:55 AM 56.3 °F 56.1 °F 99% 29.87 in 1.5 mi SSW 3.5 mph - N/A   Overcast
3:15 AM 56.3 °F 55.9 °F 99% 29.86 in 1.0 mi SW 5.8 mph - N/A   Overcast
3:35 AM 56.3 °F 56.1 °F 99% 29.86 in 1.2 mi SW 4.6 mph - N/A   Overcast
3:55 AM 56.3 °F 56.3 °F 100% 29.87 in 1.0 mi SSW 4.6 mph - N/A   Overcast
4:15 AM 56.3 °F 56.3 °F 100% 29.87 in 1.0 mi SW 5.8 mph - N/A   Overcast
4:35 AM 56.3 °F 56.3 °F 100% 29.87 in 1.0 mi SW 3.5 mph - N/A   Overcast
4:55 AM 56.3 °F 56.3 °F 100% 29.87 in 1.0 mi SW 3.5 mph - N/A   Overcast
5:15 AM 56.3 °F 56.3 °F 100% 29.87 in 1.0 mi South 3.5 mph - N/A   Overcast
5:35 AM 56.3 °F 56.3 °F 100% 29.87 in 0.8 mi Calm Calm - N/A   Overcast
5:55 AM 56.5 °F 56.5 °F 100% 29.87 in 0.8 mi SW 3.5 mph - N/A   Overcast
6:15 AM 56.7 °F 56.7 °F 100% 29.88 in 3.0 mi SW 3.5 mph - N/A   Overcast
6:35 AM 57.2 °F 57.0 °F 99% 29.88 in 7.0 mi SSW 4.6 mph - N/A   Overcast
6:55 AM 57.2 °F 56.8 °F 99% 29.88 in 10.0 mi SW 4.6 mph - N/A   Overcast
7:15 AM 57.2 °F 56.7 °F 98% 29.89 in 10.0 mi WSW 3.5 mph - N/A   Overcast
7:35 AM 57.4 °F 57.0 °F 99% 29.89 in 10.0 mi SW 3.5 mph - N/A   Overcast
7:55 AM 57.4 °F 56.8 °F 98% 29.89 in 10.0 mi SW 3.5 mph - N/A   Overcast
8:15 AM 57.4 °F 57.2 °F 99% 29.89 in 3.0 mi NE 4.6 mph - N/A   Overcast
8:35 AM 56.3 °F 56.3 °F 100% 29.89 in 2.5 mi NE 5.8 mph - N/A   Overcast
8:55 AM 55.4 °F 55.0 °F 99% 29.90 in 4.0 mi NE 6.9 mph - N/A   Overcast
9:15 AM 54.7 °F 54.5 °F 99% 29.90 in 4.0 mi NE 6.9 mph - N/A   Overcast
9:35 AM 55.4 °F 55.0 °F 99% 29.91 in 5.0 mi ENE 4.6 mph - N/A   Overcast
9:55 AM 55.4 °F 55.0 °F 99% 29.92 in 7.0 mi NE 5.8 mph - N/A   Overcast
10:15 AM 55.2 °F 54.7 °F 98% 29.92 in 5.0 mi NE 9.2 mph - 0.01 in   Overcast
10:35 AM 54.7 °F 54.5 °F 99% 29.94 in 4.0 mi NE 9.2 mph - 0.01 in   Overcast
10:55 AM 54.5 °F 53.8 °F 97% 29.94 in 2.5 mi NE 9.2 mph 20.7 mph 0.07 in Rain Heavy Rain
11:15 AM 54.0 °F 53.1 °F 97% 29.94 in 3.0 mi ENE 11.5 mph 20.7 mph 0.06 in Rain Rain
11:35 AM 54.3 °F 53.6 °F 97% 29.96 in 10.0 mi NE 10.4 mph 16.1 mph 0.08 in Rain Light Rain
11:55 AM 55.6 °F 54.1 °F 95% 29.96 in 10.0 mi NE 11.5 mph 17.3 mph 0.08 in   Overcast
12:15 PM 56.1 °F 54.0 °F 92% 29.97 in 10.0 mi NE 11.5 mph 16.1 mph N/A   Overcast
12:35 PM 56.1 °F 53.1 °F 89% 29.98 in 10.0 mi NE 11.5 mph 17.3 mph N/A   Overcast
12:55 PM 57.4 °F 53.8 °F 88% 29.99 in 10.0 mi ENE 11.5 mph - N/A   Overcast
1:15 PM 57.4 °F 53.4 °F 87% 29.99 in 10.0 mi ENE 10.4 mph 17.3 mph N/A   Overcast
1:35 PM 58.8 °F 54.0 °F 84% 29.99 in 10.0 mi ENE 11.5 mph 16.1 mph N/A   Overcast
1:55 PM 56.3 °F 54.1 °F 92% 30.01 in 4.0 mi ENE 9.2 mph - 0.01 in Rain Light Rain
2:15 PM 55.6 °F 54.5 °F 96% 30.01 in 4.0 mi NE 5.8 mph - 0.01 in   Light Drizzle
2:35 PM 55.6 °F 54.5 °F 96% 30.01 in 7.0 mi NNE 5.8 mph - 0.02 in   Light Drizzle
2:55 PM 55.8 °F 54.7 °F 96% 30.02 in 7.0 mi NE 6.9 mph - 0.03 in Rain Light Rain
3:15 PM 56.7 °F 52.0 °F 84% 30.02 in 10.0 mi North 9.2 mph 18.4 mph N/A   Overcast
3:35 PM 57.6 °F 52.0 °F 82% 30.02 in 10.0 mi North 9.2 mph 16.1 mph N/A   Overcast
3:55 PM 57.4 °F 51.3 °F 80% 30.02 in 7.0 mi NNE 5.8 mph - N/A   Overcast
4:15 PM 57.9 °F 50.7 °F 77% 30.02 in 10.0 mi NNE 10.4 mph 17.3 mph N/A   Overcast
4:35 PM 57.2 °F 48.9 °F 74% 30.03 in 10.0 mi NNE 9.2 mph 19.6 mph N/A   Overcast
4:55 PM 58.1 °F 48.0 °F 69% 30.04 in 10.0 mi NNE 12.7 mph 18.4 mph N/A   Overcast
5:15 PM 56.5 °F 47.7 °F 72% 30.05 in 10.0 mi NNE 11.5 mph 16.1 mph N/A   Overcast
5:35 PM 56.7 °F 47.3 °F 71% 30.06 in 10.0 mi North 13.8 mph 19.6 mph N/A   Overcast
5:55 PM 55.8 °F 48.0 °F 75% 30.06 in 10.0 mi North 10.4 mph - N/A   Overcast
6:15 PM 56.8 °F 49.5 °F 76% 30.07 in 10.0 mi North 8.1 mph - N/A   Overcast
6:35 PM 55.8 °F 47.7 °F 74% 30.07 in 10.0 mi North 8.1 mph - N/A   Overcast
6:55 PM 55.0 °F 48.2 °F 78% 30.08 in 10.0 mi North 16.1 mph 23.0 mph N/A   Overcast
7:15 PM 53.8 °F 46.0 °F 75% 30.09 in 10.0 mi North 13.8 mph 21.9 mph N/A   Overcast
7:35 PM 54.1 °F 45.7 °F 73% 30.09 in 10.0 mi North 10.4 mph 16.1 mph N/A   Overcast
7:55 PM 53.6 °F 45.3 °F 74% 30.10 in 10.0 mi NNE 9.2 mph 18.4 mph N/A   Overcast
8:15 PM 52.9 °F 45.1 °F 75% 30.10 in 10.0 mi North 8.1 mph - N/A   Overcast
8:35 PM 52.7 °F 44.4 °F 73% 30.10 in 10.0 mi NNE 8.1 mph - N/A   Overcast
8:55 PM 52.2 °F 44.8 °F 76% 30.09 in 10.0 mi NNE 9.2 mph - N/A   Overcast
9:15 PM 52.2 °F 45.1 °F 77% 30.09 in 10.0 mi NNE 5.8 mph - N/A   Overcast
9:35 PM 51.8 °F 45.3 °F 79% 30.09 in 10.0 mi NNE 10.4 mph - N/A   Overcast
9:55 PM 52.2 °F 45.5 °F 78% 30.09 in 10.0 mi NNE 6.9 mph - N/A   Overcast
10:15 PM 52.2 °F 45.7 °F 79% 30.09 in 10.0 mi NNE 5.8 mph - N/A   Overcast
10:35 PM 51.8 °F 45.5 °F 79% 30.08 in 10.0 mi NNE 6.9 mph - N/A   Overcast
10:55 PM 52.0 °F 45.1 °F 77% 30.08 in 10.0 mi NNE 8.1 mph - N/A   Overcast
11:15 PM 51.4 °F 45.1 °F 79% 30.08 in 10.0 mi NNE 8.1 mph - N/A   Overcast
11:35 PM 50.9 °F 45.3 °F 81% 30.08 in 10.0 mi North 4.6 mph - N/A   Overcast
11:55 PM 50.0 °F 43.9 °F 79% 30.07 in 10.0 mi North 6.9 mph - N/A   Mostly Cloudy